Time,TemperatureF,DewpointF,PressureIn,WindDirection,WindDirectionDegrees,WindSpeedMPH,WindSpeedGustMPH,Humidity,HourlyPrecipIn,Conditions,Clouds,dailyrainin,SoftwareType,DateUTC
2013-02-25 00:00:00,34.3,25.9,29.97,SW,236,2.0,6.0,71,0.00,,CLR,0.04,VWS V14.01,2013-02-25 05:00:00,
2013-02-25 00:01:00,34.3,26.2,29.97,SW,236,2.0,0.0,72,0.00,,CLR,0.00,VWS V14.01,2013-02-25 05:01:00,
2013-02-25 00:06:00,34.2,25.8,29.97,WSW,245,2.0,4.0,71,0.00,,CLR,0.00,VWS V14.01,2013-02-25 05:06:00,
2013-02-25 00:11:00,34.2,26.1,29.98,West,260,2.0,2.0,72,0.00,,CLR,0.00,VWS V14.01,2013-02-25 05:11:00,
2013-02-25 00:16:00,34.1,26.0,29.98,SSW,213,2.0,10.0,72,0.00,,CLR,0.00,VWS V14.01,2013-02-25 05:16:00,
2013-02-25 00:21:00,34.1,26.0,29.98,SW,218,2.0,0.0,72,0.00,,CLR,0.00,VWS V14.01,2013-02-25 05:21:00,
2013-02-25 00:26:00,34.0,25.9,29.98,WSW,237,5.0,6.0,72,0.00,,CLR,0.00,VWS V14.01,2013-02-25 05:26:00,
2013-02-25 00:31:00,34.0,25.9,29.99,SW,236,2.0,2.0,72,0.00,,CLR,0.00,VWS V14.01,2013-02-25 05:31:00,
2013-02-25 00:36:00,33.9,25.8,29.99,SW,234,2.0,6.0,72,0.00,,CLR,0.00,VWS V14.01,2013-02-25 05:36:00,
2013-02-25 00:41:00,33.8,26.1,29.99,SW,236,5.0,6.0,73,0.00,,CLR,0.00,VWS V14.01,2013-02-25 05:41:00,
2013-02-25 00:47:00,33.8,26.1,29.99,West,261,2.0,6.0,73,0.00,,CLR,0.00,VWS V14.01,2013-02-25 05:47:00,
2013-02-25 00:52:00,33.8,26.1,29.99,West,261,2.0,8.0,73,0.00,,CLR,0.00,VWS V14.01,2013-02-25 05:52:00,
2013-02-25 00:57:00,33.8,26.1,30.00,WSW,249,2.0,8.0,73,0.00,,CLR,0.00,VWS V14.01,2013-02-25 05:57:00,
2013-02-25 01:02:00,33.7,26.0,30.00,WSW,248,2.0,6.0,73,0.00,,CLR,0.00,VWS V14.01,2013-02-25 06:02:00,
2013-02-25 01:07:00,33.6,26.2,30.00,WSW,248,2.0,6.0,74,0.00,,CLR,0.00,VWS V14.01,2013-02-25 06:07:00,
2013-02-25 01:12:00,33.6,26.2,30.00,WSW,246,8.0,8.0,74,0.00,,CLR,0.00,VWS V14.01,2013-02-25 06:12:00,
2013-02-25 01:17:00,33.6,26.2,30.00,WSW,246,14.0,14.0,74,0.00,,CLR,0.00,VWS V14.01,2013-02-25 06:17:00,
2013-02-25 01:22:00,33.7,26.3,30.00,WSW,246,2.0,4.0,74,0.00,,CLR,0.00,VWS V14.01,2013-02-25 06:22:00,
2013-02-25 01:27:00,33.6,26.2,30.01,WSW,247,2.0,4.0,74,0.00,,CLR,0.00,VWS V14.01,2013-02-25 06:27:00,
2013-02-25 01:32:00,33.6,26.2,30.01,WSW,245,8.0,8.0,74,0.00,,CLR,0.00,VWS V14.01,2013-02-25 06:32:00,
2013-02-25 01:37:00,33.6,26.2,30.01,WSW,245,2.0,6.0,74,0.00,,CLR,0.00,VWS V14.01,2013-02-25 06:37:00,
2013-02-25 01:42:00,33.6,26.2,30.01,WSW,245,5.0,5.0,74,0.00,,CLR,0.00,VWS V14.01,2013-02-25 06:42:00,
2013-02-25 01:47:00,33.6,26.2,30.01,WSW,244,2.0,8.0,74,0.00,,CLR,0.00,VWS V14.01,2013-02-25 06:47:00,
2013-02-25 01:52:00,33.5,26.1,30.01,WSW,244,2.0,6.0,74,0.00,,CLR,0.00,VWS V14.01,2013-02-25 06:52:00,
2013-02-25 01:58:00,33.4,26.0,30.01,WSW,244,2.0,6.0,74,0.00,,CLR,0.00,VWS V14.01,2013-02-25 06:58:00,
2013-02-25 02:03:00,33.4,26.0,30.02,WSW,244,2.0,2.0,74,0.00,,CLR,0.00,VWS V14.01,2013-02-25 07:03:00,
2013-02-25 02:08:00,33.3,25.9,30.01,WSW,244,2.0,4.0,74,0.00,,CLR,0.00,VWS V14.01,2013-02-25 07:08:00,
2013-02-25 02:13:00,33.3,25.9,30.02,WSW,238,5.0,6.0,74,0.00,,CLR,0.00,VWS V14.01,2013-02-25 07:13:00,
2013-02-25 02:18:00,33.4,26.0,30.02,SW,236,2.0,10.0,74,0.00,,CLR,0.00,VWS V14.01,2013-02-25 07:18:00,
2013-02-25 02:23:00,33.5,26.1,30.02,WNW,302,2.0,6.0,74,0.00,,CLR,0.00,VWS V14.01,2013-02-25 07:23:00,
2013-02-25 02:28:00,33.5,26.1,30.01,SW,225,11.0,11.0,74,0.00,,CLR,0.00,VWS V14.01,2013-02-25 07:28:00,
2013-02-25 02:33:00,33.6,26.2,30.02,WNW,294,2.0,4.0,74,0.00,,CLR,0.00,VWS V14.01,2013-02-25 07:33:00,
2013-02-25 02:38:00,33.5,26.1,30.02,WNW,290,2.0,6.0,74,0.00,,CLR,0.00,VWS V14.01,2013-02-25 07:38:00,
2013-02-25 02:43:00,33.5,26.1,30.02,WNW,288,2.0,6.0,74,0.00,,CLR,0.00,VWS V14.01,2013-02-25 07:43:00,
2013-02-25 02:48:00,33.4,26.0,30.02,WNW,286,2.0,8.0,74,0.00,,CLR,0.00,VWS V14.01,2013-02-25 07:48:00,
2013-02-25 02:53:00,33.3,26.2,30.02,West,265,2.0,2.0,75,0.00,,CLR,0.00,VWS V14.01,2013-02-25 07:53:00,
2013-02-25 02:58:00,33.2,26.1,30.02,West,265,2.0,2.0,75,0.00,,SCT070,0.00,VWS V14.01,2013-02-25 07:58:00,
2013-02-25 03:03:00,33.1,26.0,30.02,West,265,5.0,5.0,75,0.00,,SCT070,0.00,VWS V14.01,2013-02-25 08:03:00,
2013-02-25 03:08:00,33.0,26.3,30.02,West,265,2.0,6.0,76,0.00,,SCT070,0.00,VWS V14.01,2013-02-25 08:08:00,
2013-02-25 03:14:00,33.0,26.3,30.02,West,264,2.0,4.0,76,0.00,,SCT070,0.00,VWS V14.01,2013-02-25 08:14:00,
2013-02-25 03:19:00,32.9,26.2,30.03,West,264,2.0,4.0,76,0.00,,SCT070,0.00,VWS V14.01,2013-02-25 08:19:00,
2013-02-25 03:24:00,32.9,26.2,30.03,West,264,2.0,2.0,76,0.00,,SCT070,0.00,VWS V14.01,2013-02-25 08:24:00,
2013-02-25 03:29:00,32.7,26.3,30.03,West,264,2.0,2.0,77,0.00,,SCT070,0.00,VWS V14.01,2013-02-25 08:29:00,
2013-02-25 03:34:00,32.5,26.1,30.03,West,264,2.0,4.0,77,0.00,,SCT070,0.00,VWS V14.01,2013-02-25 08:34:00,
2013-02-25 03:39:00,32.4,26.0,30.03,West,264,2.0,4.0,77,0.00,,SCT070,0.00,VWS V14.01,2013-02-25 08:39:00,
2013-02-25 03:44:00,32.3,25.9,30.04,West,264,2.0,4.0,77,0.00,,SCT070,0.00,VWS V14.01,2013-02-25 08:44:00,
2013-02-25 03:49:00,32.3,26.2,30.04,West,264,2.0,4.0,78,0.00,,SCT070,0.00,VWS V14.01,2013-02-25 08:49:00,
2013-02-25 03:54:00,32.3,26.2,30.04,West,264,2.0,4.0,78,0.00,,SCT070,0.00,VWS V14.01,2013-02-25 08:54:00,
2013-02-25 04:00:00,32.2,26.1,30.04,West,264,2.0,4.0,78,0.00,,CLR,0.00,VWS V14.01,2013-02-25 09:00:00,
2013-02-25 04:05:00,32.2,26.4,30.04,West,264,2.0,0.0,79,0.00,,CLR,0.00,VWS V14.01,2013-02-25 09:05:00,
2013-02-25 04:10:00,32.1,26.3,30.04,West,264,2.0,2.0,79,0.00,,CLR,0.00,VWS V14.01,2013-02-25 09:10:00,
2013-02-25 04:15:00,32.0,26.2,30.04,West,264,2.0,4.0,79,0.00,,CLR,0.00,VWS V14.01,2013-02-25 09:15:00,
2013-02-25 04:20:00,32.1,26.3,30.04,West,264,2.0,4.0,79,0.00,,CLR,0.00,VWS V14.01,2013-02-25 09:20:00,
2013-02-25 04:25:00,32.1,26.3,30.04,West,264,2.0,4.0,79,0.00,,CLR,0.00,VWS V14.01,2013-02-25 09:25:00,
2013-02-25 04:30:00,32.2,26.4,30.05,West,267,2.0,6.0,79,0.00,,CLR,0.00,VWS V14.01,2013-02-25 09:30:00,
2013-02-25 04:35:00,32.3,26.5,30.05,West,267,8.0,8.0,79,0.00,,CLR,0.00,VWS V14.01,2013-02-25 09:35:00,
2013-02-25 04:40:00,32.4,26.6,30.04,West,267,2.0,0.0,79,0.00,,CLR,0.00,VWS V14.01,2013-02-25 09:40:00,
2013-02-25 04:45:00,32.4,26.6,30.04,West,267,2.0,2.0,79,0.00,,CLR,0.00,VWS V14.01,2013-02-25 09:45:00,
2013-02-25 04:50:00,32.3,26.5,30.04,West,267,2.0,0.0,79,0.00,,CLR,0.00,VWS V14.01,2013-02-25 09:50:00,
2013-02-25 04:55:00,32.2,26.4,30.04,West,267,2.0,4.0,79,0.00,,CLR,0.00,VWS V14.01,2013-02-25 09:55:00,
2013-02-25 05:00:00,32.1,26.3,30.04,West,267,2.0,0.0,79,0.00,,CLR,0.00,VWS V14.01,2013-02-25 10:00:00,
2013-02-25 05:06:00,32.0,26.5,30.05,West,267,2.0,2.0,80,0.00,,CLR,0.00,VWS V14.01,2013-02-25 10:06:00,
2013-02-25 05:11:00,31.9,28.2,30.05,West,267,2.0,0.0,86,0.00,,CLR,0.00,VWS V14.01,2013-02-25 10:11:00,
2013-02-25 05:16:00,31.9,26.4,30.05,West,267,2.0,0.0,80,0.00,,CLR,0.00,VWS V14.01,2013-02-25 10:16:00,
2013-02-25 05:21:00,31.8,26.4,30.06,West,267,2.0,0.0,80,0.00,,CLR,0.00,VWS V14.01,2013-02-25 10:21:00,
2013-02-25 05:26:00,31.7,26.5,30.06,West,267,2.0,0.0,81,0.00,,CLR,0.00,VWS V14.01,2013-02-25 10:26:00,
2013-02-25 05:31:00,31.5,26.4,30.06,West,267,2.0,0.0,81,0.00,,CLR,0.00,VWS V14.01,2013-02-25 10:31:00,
2013-02-25 05:36:00,31.4,26.2,30.06,West,267,2.0,0.0,81,0.00,,CLR,0.00,VWS V14.01,2013-02-25 10:36:00,
2013-02-25 05:41:00,31.2,26.1,30.06,West,267,2.0,0.0,81,0.00,,CLR,0.00,VWS V14.01,2013-02-25 10:41:00,
2013-02-25 05:46:00,30.9,26.1,30.07,West,267,2.0,0.0,82,0.00,,CLR,0.00,VWS V14.01,2013-02-25 10:46:00,
2013-02-25 05:51:00,30.7,25.9,30.07,West,267,2.0,0.0,82,0.00,,CLR,0.00,VWS V14.01,2013-02-25 10:51:00,
2013-02-25 05:56:00,30.6,26.1,30.07,West,267,2.0,0.0,83,0.00,,CLR,0.00,VWS V14.01,2013-02-25 10:56:00,
2013-02-25 06:01:00,30.4,25.9,30.07,West,267,2.0,0.0,83,0.00,,CLR,0.00,VWS V14.01,2013-02-25 11:01:00,
2013-02-25 06:06:00,30.2,25.7,30.07,West,267,2.0,0.0,83,0.00,,CLR,0.00,VWS V14.01,2013-02-25 11:06:00,
2013-02-25 06:12:00,30.0,25.8,30.08,West,267,2.0,0.0,84,0.00,,CLR,0.00,VWS V14.01,2013-02-25 11:12:00,
2013-02-25 06:17:00,29.9,26.0,30.08,West,267,2.0,0.0,85,0.00,,CLR,0.00,VWS V14.01,2013-02-25 11:17:00,
2013-02-25 06:22:00,29.8,26.1,30.08,West,267,2.0,0.0,86,0.00,,CLR,0.00,VWS V14.01,2013-02-25 11:22:00,
2013-02-25 06:27:00,29.7,26.0,30.08,West,267,2.0,0.0,86,0.00,,CLR,0.00,VWS V14.01,2013-02-25 11:27:00,
2013-02-25 06:32:00,29.7,26.0,30.08,West,267,2.0,0.0,86,0.00,,CLR,0.00,VWS V14.01,2013-02-25 11:32:00,
2013-02-25 06:37:00,29.5,25.8,30.08,West,267,2.0,0.0,86,0.00,,CLR,0.00,VWS V14.01,2013-02-25 11:37:00,
2013-02-25 06:42:00,29.5,26.1,30.08,West,267,2.0,0.0,87,0.00,,CLR,0.00,VWS V14.01,2013-02-25 11:42:00,
2013-02-25 06:47:00,29.4,26.0,30.08,West,267,2.0,0.0,87,0.00,,CLR,0.00,VWS V14.01,2013-02-25 11:47:00,
2013-02-25 06:52:00,29.4,26.3,30.08,West,267,2.0,0.0,88,0.00,,CLR,0.00,VWS V14.01,2013-02-25 11:52:00,
2013-02-25 06:57:00,29.4,26.3,30.08,West,267,2.0,0.0,88,0.00,,CLR,0.00,VWS V14.01,2013-02-25 11:57:00,
2013-02-25 07:02:00,29.3,26.2,30.09,West,267,2.0,0.0,88,0.00,,CLR,0.00,VWS V14.01,2013-02-25 12:02:00,
2013-02-25 07:07:00,29.3,26.2,30.09,West,267,2.0,0.0,88,0.00,,CLR,0.00,VWS V14.01,2013-02-25 12:07:00,
2013-02-25 07:12:00,29.5,26.7,30.09,West,267,2.0,0.0,89,0.00,,CLR,0.00,VWS V14.01,2013-02-25 12:12:00,
2013-02-25 07:17:00,29.7,26.9,30.10,West,267,2.0,0.0,89,0.00,,CLR,0.00,VWS V14.01,2013-02-25 12:17:00,
2013-02-25 07:23:00,29.8,27.0,30.10,West,267,2.0,0.0,89,0.00,,CLR,0.00,VWS V14.01,2013-02-25 12:23:00,
2013-02-25 07:28:00,30.0,27.2,30.10,West,267,2.0,0.0,89,0.00,,CLR,0.00,VWS V14.01,2013-02-25 12:28:00,
2013-02-25 07:33:00,30.3,27.5,30.10,West,267,2.0,0.0,89,0.00,,CLR,0.00,VWS V14.01,2013-02-25 12:33:00,
2013-02-25 07:38:00,30.8,28.0,30.11,West,267,2.0,0.0,89,0.00,,CLR,0.00,VWS V14.01,2013-02-25 12:38:00,
2013-02-25 07:43:00,31.5,28.6,30.11,West,267,2.0,0.0,89,0.00,,CLR,0.00,VWS V14.01,2013-02-25 12:43:00,
2013-02-25 07:48:00,32.2,28.8,30.11,West,267,2.0,0.0,87,0.00,,CLR,0.00,VWS V14.01,2013-02-25 12:48:00,
2013-02-25 07:53:00,32.8,29.1,30.12,West,267,2.0,0.0,86,0.00,,CLR,0.00,VWS V14.01,2013-02-25 12:53:00,
2013-02-25 07:58:00,33.5,29.2,30.12,West,267,2.0,0.0,84,0.00,,CLR,0.00,VWS V14.01,2013-02-25 12:58:00,
2013-02-25 08:03:00,34.2,29.6,30.12,West,267,2.0,2.0,83,0.00,,CLR,0.00,VWS V14.01,2013-02-25 13:03:00,
2013-02-25 08:09:00,34.8,29.6,30.12,West,267,2.0,2.0,81,0.00,,CLR,0.00,VWS V14.01,2013-02-25 13:09:00,
2013-02-25 08:14:00,35.4,30.2,30.11,West,267,2.0,2.0,81,0.00,,CLR,0.00,VWS V14.01,2013-02-25 13:14:00,
2013-02-25 08:19:00,36.2,30.3,30.12,West,267,2.0,2.0,79,0.00,,CLR,0.00,VWS V14.01,2013-02-25 13:19:00,
2013-02-25 08:24:00,36.7,30.5,30.12,West,267,2.0,2.0,78,0.00,,CLR,0.00,VWS V14.01,2013-02-25 13:24:00,
2013-02-25 08:29:00,37.4,30.9,30.12,North,355,8.0,10.0,77,0.00,,CLR,0.00,VWS V14.01,2013-02-25 13:29:00,
2013-02-25 08:35:00,38.0,31.1,30.12,NW,325,2.0,6.0,76,0.00,,CLR,0.00,VWS V14.01,2013-02-25 13:35:00,
2013-02-25 08:40:00,38.8,31.6,30.12,NE,48,2.0,8.0,75,0.00,,CLR,0.00,VWS V14.01,2013-02-25 13:40:00,
2013-02-25 08:45:00,39.2,31.6,30.12,NE,48,2.0,12.0,74,0.00,,CLR,0.00,VWS V14.01,2013-02-25 13:45:00,
2013-02-25 08:50:00,39.5,31.9,30.12,NE,49,2.0,0.0,74,0.00,,CLR,0.00,VWS V14.01,2013-02-25 13:50:00,
2013-02-25 08:55:00,39.8,31.9,30.12,NE,48,2.0,4.0,73,0.00,,CLR,0.00,VWS V14.01,2013-02-25 13:55:00,
2013-02-25 09:00:00,40.0,31.7,30.12,ENE,62,8.0,8.0,72,0.00,,CLR,0.00,VWS V14.01,2013-02-25 14:00:00,
2013-02-25 09:05:00,40.3,32.0,30.12,ENE,61,11.0,11.0,72,0.00,,CLR,0.00,VWS V14.01,2013-02-25 14:05:00,
2013-02-25 09:10:00,40.5,31.9,30.13,NNE,17,2.0,2.0,71,0.00,,CLR,0.00,VWS V14.01,2013-02-25 14:10:00,
2013-02-25 09:15:00,40.9,31.9,30.12,West,277,2.0,6.0,70,0.00,,CLR,0.00,VWS V14.01,2013-02-25 14:15:00,
2013-02-25 09:20:00,41.2,31.8,30.12,WNW,296,5.0,5.0,69,0.00,,CLR,0.00,VWS V14.01,2013-02-25 14:20:00,
2013-02-25 09:26:00,41.7,32.3,30.12,North,9,5.0,6.0,69,0.00,,CLR,0.00,VWS V14.01,2013-02-25 14:26:00,
2013-02-25 09:31:00,42.2,32.0,30.13,North,10,2.0,2.0,67,0.00,,CLR,0.00,VWS V14.01,2013-02-25 14:31:00,
2013-02-25 09:36:00,42.6,32.4,30.13,North,11,2.0,2.0,67,0.00,,CLR,0.00,VWS V14.01,2013-02-25 14:36:00,
2013-02-25 09:41:00,42.9,32.3,30.13,North,11,8.0,8.0,66,0.00,,CLR,0.00,VWS V14.01,2013-02-25 14:41:00,
2013-02-25 09:46:00,43.2,32.2,30.13,ENE,61,2.0,8.0,65,0.00,,CLR,0.00,VWS V14.01,2013-02-25 14:46:00,
2013-02-25 09:51:00,43.5,32.2,30.13,ENE,61,2.0,0.0,64,0.00,,CLR,0.00,VWS V14.01,2013-02-25 14:51:00,
2013-02-25 09:56:00,43.8,32.0,30.13,NNE,19,2.0,8.0,63,0.00,,CLR,0.00,VWS V14.01,2013-02-25 14:56:00,
2013-02-25 10:01:00,44.0,31.8,30.13,NE,34,2.0,2.0,62,0.00,,CLR,0.00,VWS V14.01,2013-02-25 15:01:00,
2013-02-25 10:06:00,44.1,31.9,30.13,ENE,63,8.0,8.0,62,0.00,,CLR,0.00,VWS V14.01,2013-02-25 15:06:00,
2013-02-25 10:11:00,44.3,31.7,30.13,NW,319,5.0,10.0,61,0.00,,CLR,0.00,VWS V14.01,2013-02-25 15:11:00,
2013-02-25 10:16:00,44.4,31.8,30.13,North,9,8.0,10.0,61,0.00,,CLR,0.00,VWS V14.01,2013-02-25 15:16:00,
2013-02-25 10:21:00,44.1,31.9,30.13,NE,36,2.0,0.0,62,0.00,,CLR,0.00,VWS V14.01,2013-02-25 15:21:00,
2013-02-25 10:26:00,44.4,32.2,30.13,NE,36,2.0,2.0,62,0.00,,CLR,0.00,VWS V14.01,2013-02-25 15:26:00,
2013-02-25 10:32:00,45.0,31.5,30.13,North,355,2.0,14.0,59,0.00,,CLR,0.00,VWS V14.01,2013-02-25 15:32:00,
2013-02-25 10:37:00,45.0,31.5,30.13,NNE,30,5.0,14.0,59,0.00,,CLR,0.00,VWS V14.01,2013-02-25 15:37:00,
2013-02-25 10:42:00,45.2,31.7,30.13,NE,45,8.0,8.0,59,0.00,,CLR,0.00,VWS V14.01,2013-02-25 15:42:00,
2013-02-25 10:47:00,45.0,31.1,30.13,WNW,288,2.0,12.0,58,0.00,,CLR,0.00,VWS V14.01,2013-02-25 15:47:00,
2013-02-25 10:52:00,45.3,31.4,30.14,NNW,348,8.0,8.0,58,0.00,,CLR,0.00,VWS V14.01,2013-02-25 15:52:00,
2013-02-25 10:57:00,45.7,31.4,30.14,NNE,22,2.0,10.0,57,0.00,,BKN040,0.00,VWS V14.01,2013-02-25 15:57:00,
2013-02-25 11:02:00,46.4,32.0,30.13,NNE,17,2.0,8.0,57,0.00,,BKN040,0.00,VWS V14.01,2013-02-25 16:02:00,
2013-02-25 11:07:00,46.6,31.8,30.14,NE,56,2.0,8.0,56,0.00,,BKN040,0.00,VWS V14.01,2013-02-25 16:07:00,
2013-02-25 11:12:00,46.7,31.9,30.14,NE,34,8.0,8.0,56,0.00,,BKN040,0.00,VWS V14.01,2013-02-25 16:12:00,
2013-02-25 11:17:00,46.4,31.1,30.14,WSW,241,2.0,12.0,55,0.00,,BKN040,0.00,VWS V14.01,2013-02-25 16:17:00,
2013-02-25 11:22:00,45.7,30.9,30.14,SW,219,14.0,14.0,56,0.00,,BKN040,0.00,VWS V14.01,2013-02-25 16:22:00,
2013-02-25 11:27:00,45.7,31.4,30.14,NNW,331,2.0,10.0,57,0.00,,BKN040,0.00,VWS V14.01,2013-02-25 16:27:00,
2013-02-25 11:32:00,45.5,31.2,30.14,NNW,329,2.0,8.0,57,0.00,,BKN040,0.00,VWS V14.01,2013-02-25 16:32:00,
2013-02-25 11:37:00,45.2,30.9,30.14,NNW,327,2.0,8.0,57,0.00,,BKN040,0.00,VWS V14.01,2013-02-25 16:37:00,
2013-02-25 11:42:00,45.3,31.4,30.13,NNW,329,2.0,2.0,58,0.00,,BKN040,0.00,VWS V14.01,2013-02-25 16:42:00,
2013-02-25 11:48:00,45.7,31.8,30.14,WNW,296,2.0,6.0,58,0.00,,BKN040,0.00,VWS V14.01,2013-02-25 16:48:00,
2013-02-25 11:53:00,45.7,30.9,30.14,NE,42,8.0,8.0,56,0.00,,BKN040,0.00,VWS V14.01,2013-02-25 16:53:00,
2013-02-25 11:58:00,45.5,30.7,30.14,West,260,2.0,10.0,56,0.00,,BKN044,0.00,VWS V14.01,2013-02-25 16:58:00,
2013-02-25 12:03:00,45.3,30.5,30.14,West,259,2.0,6.0,56,0.00,,BKN044,0.00,VWS V14.01,2013-02-25 17:03:00,
2013-02-25 12:08:00,45.6,30.4,30.14,NW,318,8.0,12.0,55,0.00,,BKN044,0.00,VWS V14.01,2013-02-25 17:08:00,
2013-02-25 12:13:00,45.8,30.1,30.14,NE,53,5.0,6.0,54,0.00,,BKN044,0.00,VWS V14.01,2013-02-25 17:13:00,
2013-02-25 12:18:00,45.8,30.6,30.13,ENE,68,8.0,12.0,55,0.00,,BKN044,0.00,VWS V14.01,2013-02-25 17:18:00,
2013-02-25 12:23:00,46.2,30.9,30.15,NE,50,11.0,12.0,55,0.00,,BKN044,0.00,VWS V14.01,2013-02-25 17:23:00,
2013-02-25 12:28:00,45.9,30.2,30.14,NNE,19,5.0,12.0,54,0.00,,BKN044,0.00,VWS V14.01,2013-02-25 17:28:00,
2013-02-25 12:33:00,45.6,29.9,30.14,NNE,17,2.0,6.0,54,0.00,,BKN044,0.00,VWS V14.01,2013-02-25 17:33:00,
2013-02-25 12:38:00,45.8,31.0,30.14,NNE,17,5.0,6.0,56,0.00,,BKN044,0.00,VWS V14.01,2013-02-25 17:38:00,
2013-02-25 12:43:00,46.7,31.4,30.14,WSW,253,2.0,10.0,55,0.00,,BKN044,0.00,VWS V14.01,2013-02-25 17:43:00,
2013-02-25 12:48:00,47.0,31.7,30.14,SSW,213,2.0,10.0,55,0.00,,BKN044,0.00,VWS V14.01,2013-02-25 17:48:00,
2013-02-25 12:53:00,46.8,31.0,30.15,WSW,256,5.0,10.0,54,0.00,,BKN044,0.00,VWS V14.01,2013-02-25 17:53:00,
2013-02-25 12:58:00,46.4,31.1,30.15,WSW,252,2.0,10.0,55,0.00,,OVC046,0.00,VWS V14.01,2013-02-25 17:58:00,
2013-02-25 13:03:00,46.2,30.5,30.15,WNW,302,2.0,6.0,54,0.00,,OVC046,0.00,VWS V14.01,2013-02-25 18:03:00,
2013-02-25 13:08:00,46.1,30.9,30.14,NW,324,5.0,14.0,55,0.00,,OVC046,0.00,VWS V14.01,2013-02-25 18:08:00,
2013-02-25 13:13:00,46.1,30.9,30.14,WNW,302,2.0,4.0,55,0.00,,OVC046,0.00,VWS V14.01,2013-02-25 18:13:00,
2013-02-25 13:18:00,46.0,30.8,30.14,NE,44,2.0,8.0,55,0.00,,OVC046,0.00,VWS V14.01,2013-02-25 18:18:00,
2013-02-25 13:23:00,46.0,30.3,30.14,West,259,2.0,10.0,54,0.00,,OVC046,0.00,VWS V14.01,2013-02-25 18:23:00,
2013-02-25 13:28:00,46.0,30.3,30.14,West,259,2.0,10.0,54,0.00,,OVC046,0.00,VWS V14.01,2013-02-25 18:28:00,
2013-02-25 13:33:00,46.2,30.9,30.14,West,277,2.0,2.0,55,0.00,,OVC046,0.00,VWS V14.01,2013-02-25 18:33:00,
2013-02-25 13:38:00,46.3,30.6,30.14,WNW,286,2.0,14.0,54,0.00,,OVC046,0.00,VWS V14.01,2013-02-25 18:38:00,
2013-02-25 13:43:00,46.2,31.4,30.13,West,272,2.0,6.0,56,0.00,,OVC046,0.00,VWS V14.01,2013-02-25 18:43:00,
2013-02-25 13:48:00,46.2,30.9,30.14,NW,326,2.0,6.0,55,0.00,,OVC046,0.00,VWS V14.01,2013-02-25 18:48:00,
2013-02-25 13:53:00,46.4,30.7,30.14,WSW,252,2.0,6.0,54,0.00,,OVC046,0.00,VWS V14.01,2013-02-25 18:53:00,
2013-02-25 13:59:00,46.3,30.1,30.14,WSW,257,5.0,14.0,53,0.00,,OVC046,0.00,VWS V14.01,2013-02-25 18:59:00,
2013-02-25 14:04:00,46.3,30.6,30.14,WSW,238,2.0,10.0,54,0.00,,OVC046,0.00,VWS V14.01,2013-02-25 19:04:00,
2013-02-25 14:09:00,46.5,30.3,30.14,SW,235,2.0,10.0,53,0.00,,OVC046,0.00,VWS V14.01,2013-02-25 19:09:00,
2013-02-25 14:14:00,46.8,30.6,30.15,West,272,2.0,8.0,53,0.00,,OVC046,0.00,VWS V14.01,2013-02-25 19:14:00,
2013-02-25 14:19:00,47.1,30.9,30.14,NW,311,2.0,8.0,53,0.00,,OVC046,0.00,VWS V14.01,2013-02-25 19:19:00,
2013-02-25 14:24:00,47.5,31.2,30.14,NW,311,5.0,5.0,53,0.00,,OVC046,0.00,VWS V14.01,2013-02-25 19:24:00,
2013-02-25 14:29:00,47.5,30.3,30.14,NW,306,2.0,8.0,51,0.00,,OVC046,0.00,VWS V14.01,2013-02-25 19:29:00,
2013-02-25 14:34:00,47.1,29.9,30.14,NW,304,11.0,11.0,51,0.00,,OVC046,0.00,VWS V14.01,2013-02-25 19:34:00,
2013-02-25 14:39:00,46.8,30.6,30.14,West,263,2.0,6.0,53,0.00,,OVC046,0.00,VWS V14.01,2013-02-25 19:39:00,
2013-02-25 14:44:00,46.2,30.9,30.15,North,5,2.0,8.0,55,0.00,,OVC046,0.00,VWS V14.01,2013-02-25 19:44:00,
2013-02-25 14:49:00,46.0,31.6,30.15,NNW,336,5.0,8.0,57,0.00,,OVC046,0.00,VWS V14.01,2013-02-25 19:49:00,
2013-02-25 14:54:00,45.9,31.1,30.16,WSW,238,14.0,14.0,56,0.00,,OVC046,0.00,VWS V14.01,2013-02-25 19:54:00,
2013-02-25 14:59:00,45.8,31.0,30.15,WSW,241,8.0,10.0,56,0.00,,OVC047,0.00,VWS V14.01,2013-02-25 19:59:00,
2013-02-25 15:04:00,45.8,30.6,30.15,WSW,252,8.0,8.0,55,0.00,,OVC047,0.00,VWS V14.01,2013-02-25 20:04:00,
2013-02-25 15:09:00,45.6,31.3,30.16,WSW,252,5.0,8.0,57,0.00,,OVC047,0.00,VWS V14.01,2013-02-25 20:09:00,
2013-02-25 15:14:00,45.7,30.9,30.16,WSW,251,2.0,6.0,56,0.00,,OVC047,0.00,VWS V14.01,2013-02-25 20:14:00,
2013-02-25 15:19:00,45.8,31.0,30.16,WSW,250,2.0,6.0,56,0.00,,OVC047,0.00,VWS V14.01,2013-02-25 20:19:00,
2013-02-25 15:24:00,45.8,30.6,30.16,West,277,2.0,8.0,55,0.00,,OVC047,0.00,VWS V14.01,2013-02-25 20:24:00,
2013-02-25 15:29:00,45.8,30.6,30.16,West,276,2.0,8.0,55,0.00,,OVC047,0.00,VWS V14.01,2013-02-25 20:29:00,
2013-02-25 15:34:00,45.8,31.0,30.15,West,275,8.0,8.0,56,0.00,,OVC047,0.00,VWS V14.01,2013-02-25 20:34:00,
2013-02-25 15:40:00,45.8,31.0,30.15,West,275,2.0,6.0,56,0.00,,OVC047,0.00,VWS V14.01,2013-02-25 20:40:00,
2013-02-25 15:45:00,45.9,31.1,30.15,West,275,2.0,2.0,56,0.00,,OVC047,0.00,VWS V14.01,2013-02-25 20:45:00,
2013-02-25 15:50:00,46.0,30.3,30.15,SSW,196,2.0,8.0,54,0.00,,OVC047,0.00,VWS V14.01,2013-02-25 20:50:00,
2013-02-25 15:55:00,45.9,29.8,30.16,SW,228,2.0,8.0,53,0.00,,OVC047,0.00,VWS V14.01,2013-02-25 20:55:00,
2013-02-25 16:00:00,45.7,29.1,30.16,WSW,239,8.0,8.0,52,0.00,,OVC049,0.00,VWS V14.01,2013-02-25 21:00:00,
2013-02-25 16:05:00,45.6,29.0,30.16,WSW,246,11.0,11.0,52,0.00,,OVC049,0.00,VWS V14.01,2013-02-25 21:05:00,
2013-02-25 16:10:00,45.6,29.9,30.16,WSW,242,11.0,11.0,54,0.00,,OVC049,0.00,VWS V14.01,2013-02-25 21:10:00,
2013-02-25 16:15:00,45.6,29.5,30.16,WSW,254,2.0,8.0,53,0.00,,OVC049,0.00,VWS V14.01,2013-02-25 21:15:00,
2013-02-25 16:20:00,45.5,29.8,30.16,WSW,247,2.0,8.0,54,0.00,,OVC049,0.00,VWS V14.01,2013-02-25 21:20:00,
2013-02-25 16:25:00,45.5,30.3,30.16,WSW,246,2.0,8.0,55,0.00,,OVC049,0.00,VWS V14.01,2013-02-25 21:25:00,
2013-02-25 16:30:00,45.4,30.2,30.16,WSW,246,2.0,8.0,55,0.00,,OVC049,0.00,VWS V14.01,2013-02-25 21:30:00,
2013-02-25 16:35:00,45.3,30.1,30.16,WSW,248,5.0,6.0,55,0.00,,OVC049,0.00,VWS V14.01,2013-02-25 21:35:00,
2013-02-25 16:40:00,45.1,30.4,30.16,WSW,248,2.0,6.0,56,0.00,,OVC049,0.00,VWS V14.01,2013-02-25 21:40:00,
2013-02-25 16:45:00,45.0,29.8,30.16,WSW,248,2.0,2.0,55,0.00,,OVC049,0.00,VWS V14.01,2013-02-25 21:45:00,
2013-02-25 16:50:00,44.9,30.2,30.16,WSW,248,2.0,0.0,56,0.00,,OVC049,0.00,VWS V14.01,2013-02-25 21:50:00,
2013-02-25 16:56:00,44.9,30.2,30.15,WSW,248,2.0,0.0,56,0.00,,OVC050,0.00,VWS V14.01,2013-02-25 21:56:00,
2013-02-25 17:01:00,44.9,29.7,30.16,WSW,248,2.0,0.0,55,0.00,,OVC050,0.00,VWS V14.01,2013-02-25 22:01:00,
2013-02-25 17:06:00,44.8,30.1,30.16,WSW,248,2.0,0.0,56,0.00,,OVC050,0.00,VWS V14.01,2013-02-25 22:06:00,
2013-02-25 17:11:00,44.7,30.4,30.17,WSW,248,5.0,5.0,57,0.00,,OVC050,0.00,VWS V14.01,2013-02-25 22:11:00,
2013-02-25 17:16:00,44.6,30.3,30.17,WSW,248,2.0,4.0,57,0.00,,OVC050,0.00,VWS V14.01,2013-02-25 22:16:00,
2013-02-25 17:21:00,44.5,30.7,30.17,WSW,248,2.0,0.0,58,0.00,,OVC050,0.00,VWS V14.01,2013-02-25 22:21:00,
2013-02-25 17:26:00,44.4,30.6,30.17,WSW,248,2.0,2.0,58,0.00,,OVC050,0.00,VWS V14.01,2013-02-25 22:26:00,
2013-02-25 17:31:00,44.4,31.0,30.17,WSW,248,2.0,6.0,59,0.00,,OVC050,0.00,VWS V14.01,2013-02-25 22:31:00,
2013-02-25 17:36:00,44.3,31.3,30.17,WSW,248,2.0,6.0,60,0.00,,OVC050,0.00,VWS V14.01,2013-02-25 22:36:00,
2013-02-25 17:41:00,44.2,31.6,30.17,SW,236,2.0,0.0,61,0.00,,OVC050,0.00,VWS V14.01,2013-02-25 22:41:00,
2013-02-25 17:46:00,44.1,31.5,30.17,WSW,238,2.0,8.0,61,0.00,,OVC050,0.00,VWS V14.01,2013-02-25 22:46:00,
2013-02-25 17:51:00,44.0,31.8,30.17,WSW,239,2.0,2.0,62,0.00,,OVC050,0.00,VWS V14.01,2013-02-25 22:51:00,
2013-02-25 17:56:00,44.0,31.8,30.18,WSW,239,2.0,2.0,62,0.00,,OVC048,0.00,VWS V14.01,2013-02-25 22:56:00,
2013-02-25 18:01:00,43.9,31.7,30.19,WSW,238,2.0,2.0,62,0.00,,OVC048,0.00,VWS V14.01,2013-02-25 23:01:00,
2013-02-25 18:06:00,43.8,32.0,30.19,WSW,238,2.0,2.0,63,0.00,,OVC048,0.00,VWS V14.01,2013-02-25 23:06:00,
2013-02-25 18:12:00,43.8,32.0,30.19,WSW,237,2.0,0.0,63,0.00,,OVC048,0.00,VWS V14.01,2013-02-25 23:12:00,
2013-02-25 18:17:00,43.7,32.0,30.19,WSW,237,2.0,2.0,63,0.00,,OVC048,0.00,VWS V14.01,2013-02-25 23:17:00,
2013-02-25 18:22:00,43.7,32.0,30.19,WSW,238,2.0,2.0,63,0.00,,OVC048,0.00,VWS V14.01,2013-02-25 23:22:00,
2013-02-25 18:27:00,43.6,32.2,30.19,WSW,238,2.0,2.0,64,0.00,,OVC048,0.00,VWS V14.01,2013-02-25 23:27:00,
2013-02-25 18:32:00,43.6,32.2,30.20,WSW,238,2.0,0.0,64,0.00,,OVC048,0.00,VWS V14.01,2013-02-25 23:32:00,
2013-02-25 18:37:00,43.6,31.9,30.20,NW,311,2.0,6.0,63,0.00,,OVC048,0.00,VWS V14.01,2013-02-25 23:37:00,
2013-02-25 18:42:00,43.6,32.2,30.20,NW,311,2.0,2.0,64,0.00,,OVC048,0.00,VWS V14.01,2013-02-25 23:42:00,
2013-02-25 18:47:00,43.5,32.2,30.20,NW,311,2.0,2.0,64,0.00,,OVC048,0.00,VWS V14.01,2013-02-25 23:47:00,
2013-02-25 18:52:00,43.5,32.2,30.20,NW,311,2.0,0.0,64,0.00,,OVC048,0.00,VWS V14.01,2013-02-25 23:52:00,
2013-02-25 18:57:00,43.4,32.0,30.20,NW,311,2.0,0.0,64,0.00,,OVC050,0.00,VWS V14.01,2013-02-25 23:57:00,
2013-02-25 19:02:00,43.3,32.3,30.21,NW,311,2.0,0.0,65,0.00,,OVC050,0.00,VWS V14.01,2013-02-26 00:02:00,
2013-02-25 19:07:00,43.3,32.3,30.21,NW,311,2.0,2.0,65,0.00,,OVC050,0.00,VWS V14.01,2013-02-26 00:07:00,
2013-02-25 19:12:00,43.2,32.2,30.21,NW,311,2.0,0.0,65,0.00,,OVC050,0.00,VWS V14.01,2013-02-26 00:12:00,
2013-02-25 19:17:00,43.2,32.2,30.21,NW,311,2.0,0.0,65,0.00,,OVC050,0.00,VWS V14.01,2013-02-26 00:17:00,
2013-02-25 19:23:00,43.1,32.2,30.21,NW,311,2.0,0.0,65,0.00,,OVC050,0.00,VWS V14.01,2013-02-26 00:23:00,
2013-02-25 19:28:00,43.1,32.5,30.21,NW,311,2.0,0.0,66,0.00,,OVC050,0.00,VWS V14.01,2013-02-26 00:28:00,
2013-02-25 19:33:00,43.0,32.1,30.21,NW,311,2.0,0.0,65,0.00,,OVC050,0.00,VWS V14.01,2013-02-26 00:33:00,
2013-02-25 19:38:00,42.9,32.3,30.21,NW,311,2.0,0.0,66,0.00,,OVC050,0.00,VWS V14.01,2013-02-26 00:38:00,
2013-02-25 19:43:00,42.9,32.3,30.22,NW,311,2.0,0.0,66,0.00,,OVC050,0.00,VWS V14.01,2013-02-26 00:43:00,
2013-02-25 19:48:00,42.8,32.6,30.22,NW,311,2.0,0.0,67,0.00,,OVC050,0.00,VWS V14.01,2013-02-26 00:48:00,
2013-02-25 19:53:00,42.8,32.6,30.22,NW,311,2.0,0.0,67,0.00,,OVC050,0.00,VWS V14.01,2013-02-26 00:53:00,
2013-02-25 19:58:00,42.7,32.2,30.22,NW,311,2.0,2.0,66,0.00,,OVC050,0.00,VWS V14.01,2013-02-26 00:58:00,
2013-02-25 20:03:00,42.8,32.2,30.22,NW,311,2.0,0.0,66,0.00,,OVC050,0.00,VWS V14.01,2013-02-26 01:03:00,
2013-02-25 20:08:00,42.8,32.2,30.22,NW,311,2.0,0.0,66,0.00,,OVC050,0.00,VWS V14.01,2013-02-26 01:08:00,
2013-02-25 20:13:00,42.8,32.2,30.22,NW,311,2.0,0.0,66,0.00,,OVC050,0.00,VWS V14.01,2013-02-26 01:13:00,
2013-02-25 20:18:00,42.8,32.2,30.22,NW,311,2.0,2.0,66,0.00,,OVC050,0.00,VWS V14.01,2013-02-26 01:18:00,
2013-02-25 20:23:00,42.7,32.5,30.22,NW,311,2.0,0.0,67,0.00,,OVC050,0.00,VWS V14.01,2013-02-26 01:23:00,
2013-02-25 20:29:00,42.7,32.5,30.22,NW,311,2.0,0.0,67,0.00,,OVC050,0.00,VWS V14.01,2013-02-26 01:29:00,
2013-02-25 20:34:00,42.7,32.5,30.22,NW,311,2.0,0.0,67,0.00,,OVC050,0.00,VWS V14.01,2013-02-26 01:34:00,
2013-02-25 20:39:00,42.6,32.4,30.22,NW,311,2.0,0.0,67,0.00,,OVC050,0.00,VWS V14.01,2013-02-26 01:39:00,
2013-02-25 20:44:00,42.6,32.4,30.22,NW,311,2.0,0.0,67,0.00,,OVC050,0.00,VWS V14.01,2013-02-26 01:44:00,
2013-02-25 20:49:00,42.5,32.3,30.22,NW,311,2.0,0.0,67,0.00,,OVC050,0.00,VWS V14.01,2013-02-26 01:49:00,
2013-02-25 20:54:00,42.3,32.1,30.22,NW,311,2.0,0.0,67,0.00,,OVC050,0.00,VWS V14.01,2013-02-26 01:54:00,
2013-02-25 20:59:00,42.3,32.1,30.22,NW,311,2.0,0.0,67,0.00,,OVC055,0.00,VWS V14.01,2013-02-26 01:59:00,
2013-02-25 21:04:00,42.2,32.4,30.23,NW,311,2.0,0.0,68,0.00,,OVC055,0.00,VWS V14.01,2013-02-26 02:04:00,
2013-02-25 21:09:00,42.1,32.7,30.23,NW,311,2.0,0.0,69,0.00,,OVC055,0.00,VWS V14.01,2013-02-26 02:09:00,
2013-02-25 21:14:00,42.0,32.6,30.23,NW,311,2.0,0.0,69,0.00,,OVC055,0.00,VWS V14.01,2013-02-26 02:14:00,
2013-02-25 21:19:00,41.9,32.5,30.23,NW,311,2.0,0.0,69,0.00,,OVC055,0.00,VWS V14.01,2013-02-26 02:19:00,
2013-02-25 21:24:00,41.8,32.4,30.22,NW,311,2.0,0.0,69,0.00,,OVC055,0.00,VWS V14.01,2013-02-26 02:24:00,
2013-02-25 21:30:00,41.7,32.3,30.22,NW,311,2.0,0.0,69,0.00,,OVC055,0.00,VWS V14.01,2013-02-26 02:30:00,
2013-02-25 21:35:00,41.6,32.2,30.23,NW,311,2.0,0.0,69,0.00,,OVC055,0.00,VWS V14.01,2013-02-26 02:35:00,
2013-02-25 21:40:00,41.5,32.5,30.23,NW,311,2.0,0.0,70,0.00,,OVC055,0.00,VWS V14.01,2013-02-26 02:40:00,
2013-02-25 21:45:00,41.4,32.7,30.23,NW,311,2.0,0.0,71,0.00,,OVC055,0.00,VWS V14.01,2013-02-26 02:45:00,
2013-02-25 21:50:00,41.2,32.5,30.24,NW,311,2.0,0.0,71,0.00,,OVC055,0.00,VWS V14.01,2013-02-26 02:50:00,
2013-02-25 21:55:00,41.0,32.3,30.24,NW,311,2.0,0.0,71,0.00,,OVC055,0.00,VWS V14.01,2013-02-26 02:55:00,
2013-02-25 22:00:00,40.8,32.1,30.23,NW,311,2.0,0.0,71,0.00,,OVC055,0.00,VWS V14.01,2013-02-26 03:00:00,
2013-02-25 22:05:00,40.7,32.0,30.23,NW,311,2.0,0.0,71,0.00,,OVC055,0.00,VWS V14.01,2013-02-26 03:05:00,
2013-02-25 22:10:00,40.6,32.3,30.24,NW,311,2.0,0.0,72,0.00,,OVC055,0.00,VWS V14.01,2013-02-26 03:10:00,
2013-02-25 22:15:00,40.5,32.9,30.24,NW,311,2.0,0.0,74,0.00,,OVC055,0.00,VWS V14.01,2013-02-26 03:15:00,
2013-02-25 22:20:00,40.3,32.7,30.24,NW,311,2.0,0.0,74,0.00,,OVC055,0.00,VWS V14.01,2013-02-26 03:20:00,
2013-02-25 22:25:00,40.2,32.6,30.24,NW,311,2.0,0.0,74,0.00,,OVC055,0.00,VWS V14.01,2013-02-26 03:25:00,
2013-02-25 22:31:00,40.2,32.6,30.24,NW,311,2.0,0.0,74,0.00,,OVC055,0.00,VWS V14.01,2013-02-26 03:31:00,
2013-02-25 22:36:00,40.1,32.5,30.24,NW,311,2.0,0.0,74,0.00,,OVC055,0.00,VWS V14.01,2013-02-26 03:36:00,
2013-02-25 22:41:00,40.0,32.7,30.24,NW,311,2.0,0.0,75,0.00,,OVC055,0.00,VWS V14.01,2013-02-26 03:41:00,
2013-02-25 22:46:00,39.9,32.6,30.24,NW,311,2.0,0.0,75,0.00,,OVC055,0.00,VWS V14.01,2013-02-26 03:46:00,
2013-02-25 22:51:00,39.7,32.4,30.24,NW,311,2.0,0.0,75,0.00,,OVC055,0.00,VWS V14.01,2013-02-26 03:51:00,
2013-02-25 22:56:00,39.6,32.7,30.23,NW,311,2.0,0.0,76,0.00,,OVC055,0.00,VWS V14.01,2013-02-26 03:56:00,
2013-02-25 23:01:00,39.4,32.2,30.23,NW,311,2.0,0.0,75,0.00,,OVC055,0.00,VWS V14.01,2013-02-26 04:01:00,
2013-02-25 23:06:00,39.2,32.3,30.23,NW,311,2.0,0.0,76,0.00,,OVC055,0.00,VWS V14.01,2013-02-26 04:06:00,
2013-02-25 23:11:00,39.0,32.1,30.23,NW,311,2.0,0.0,76,0.00,,OVC055,0.00,VWS V14.01,2013-02-26 04:11:00,
2013-02-25 23:16:00,38.8,32.2,30.23,NW,311,2.0,0.0,77,0.00,,OVC055,0.00,VWS V14.01,2013-02-26 04:16:00,
2013-02-25 23:21:00,38.7,32.1,30.23,NW,311,2.0,0.0,77,0.00,,OVC055,0.00,VWS V14.01,2013-02-26 04:21:00,
2013-02-25 23:26:00,38.5,32.2,30.23,NW,311,2.0,0.0,78,0.00,,OVC055,0.00,VWS V14.01,2013-02-26 04:26:00,
2013-02-25 23:32:00,38.4,32.2,30.23,NW,311,2.0,0.0,78,0.00,,OVC055,0.00,VWS V14.01,2013-02-26 04:32:00,
2013-02-25 23:37:00,38.2,32.3,30.22,NW,311,2.0,0.0,79,0.00,,OVC055,0.00,VWS V14.01,2013-02-26 04:37:00,
2013-02-25 23:42:00,38.0,32.1,30.22,NW,311,2.0,0.0,79,0.00,,OVC055,0.00,VWS V14.01,2013-02-26 04:42:00,
2013-02-25 23:47:00,37.7,31.8,30.23,NW,311,2.0,0.0,79,0.00,,OVC055,0.00,VWS V14.01,2013-02-26 04:47:00,
2013-02-25 23:52:00,37.5,31.6,30.22,NW,311,2.0,0.0,79,0.00,,OVC055,0.00,VWS V14.01,2013-02-26 04:52:00,
2013-02-25 23:57:00,37.3,31.4,30.22,NW,311,2.0,0.0,79,0.00,,FEW055,0.00,VWS V14.01,2013-02-26 04:57:00,